Time,TemperatureF,DewpointF,PressureIn,WindDirection,WindDirectionDegrees,WindSpeedMPH,WindSpeedGustMPH,Humidity,HourlyPrecipIn,Conditions,Clouds,dailyrainin,SolarRadiationWatts/m^2,SoftwareType,DateUTC
2013-10-04 00:07:00,71.5,69.0,29.96,SE,145,0.0,-999.0,93,-99.99,,,0.00,0,weatherlink.com 1.10,2013-10-04 05:07:00,
2013-10-04 00:22:00,71.3,69.0,29.96,SE,145,0.0,-999.0,93,-99.99,,,0.00,0,weatherlink.com 1.10,2013-10-04 05:22:00,
2013-10-04 00:37:00,71.2,69.0,29.96,SE,145,0.0,-999.0,93,-99.99,,,0.00,0,weatherlink.com 1.10,2013-10-04 05:37:00,
2013-10-04 00:52:00,71.1,69.0,29.96,SE,145,0.0,-999.0,93,-99.99,,,0.00,0,weatherlink.com 1.10,2013-10-04 05:52:00,
2013-10-04 01:07:00,71.1,69.0,29.96,SE,145,0.0,-999.0,94,-99.99,,,0.00,0,weatherlink.com 1.10,2013-10-04 06:07:00,
2013-10-04 01:22:00,71.0,69.0,29.97,SE,146,0.0,-999.0,94,-99.99,,,0.00,0,weatherlink.com 1.10,2013-10-04 06:22:00,
2013-10-04 01:37:00,70.9,69.0,29.97,SSE,147,0.0,-999.0,94,-99.99,,,0.00,0,weatherlink.com 1.10,2013-10-04 06:37:00,
2013-10-04 01:52:00,70.7,69.0,29.97,SSE,147,0.0,-999.0,94,-99.99,,,0.00,0,weatherlink.com 1.10,2013-10-04 06:52:00,
2013-10-04 02:07:00,70.5,69.0,29.98,SSE,147,0.0,-999.0,94,-99.99,,,0.00,0,weatherlink.com 1.10,2013-10-04 07:07:00,
2013-10-04 02:22:00,70.3,69.0,29.98,SSE,147,0.0,-999.0,94,-99.99,,,0.00,0,weatherlink.com 1.10,2013-10-04 07:22:00,
2013-10-04 02:37:00,70.1,68.0,29.98,SSE,147,0.0,-999.0,94,-99.99,,,0.00,0,weatherlink.com 1.10,2013-10-04 07:37:00,
2013-10-04 02:52:00,70.0,68.0,29.97,SSE,147,0.0,-999.0,94,-99.99,,,0.00,0,weatherlink.com 1.10,2013-10-04 07:52:00,
2013-10-04 03:07:00,69.9,69.0,29.97,SSE,147,0.0,-999.0,95,-99.99,,,0.00,0,weatherlink.com 1.10,2013-10-04 08:07:00,
2013-10-04 03:22:00,69.7,68.0,29.97,SSE,147,0.0,-999.0,95,-99.99,,,0.00,0,weatherlink.com 1.10,2013-10-04 08:22:00,
2013-10-04 03:37:00,69.7,68.0,29.97,SSE,147,0.0,-999.0,95,-99.99,,,0.00,0,weatherlink.com 1.10,2013-10-04 08:37:00,
2013-10-04 03:52:00,69.6,68.0,29.98,SSE,147,0.0,-999.0,95,-99.99,,,0.00,0,weatherlink.com 1.10,2013-10-04 08:52:00,
2013-10-04 04:07:00,69.5,68.0,29.97,SSE,147,0.0,-999.0,95,-99.99,,,0.00,0,weatherlink.com 1.10,2013-10-04 09:07:00,
2013-10-04 04:22:00,69.3,68.0,29.97,SSE,147,0.0,-999.0,95,-99.99,,,0.00,0,weatherlink.com 1.10,2013-10-04 09:22:00,
2013-10-04 04:37:00,69.2,68.0,29.97,SSE,147,0.0,-999.0,95,-99.99,,,0.00,0,weatherlink.com 1.10,2013-10-04 09:37:00,
2013-10-04 04:52:00,69.2,68.0,29.97,SSE,147,0.0,-999.0,95,-99.99,,,0.00,0,weatherlink.com 1.10,2013-10-04 09:52:00,
2013-10-04 05:07:00,69.1,68.0,29.97,SSE,147,0.0,-999.0,96,-99.99,,,0.00,0,weatherlink.com 1.10,2013-10-04 10:07:00,
2013-10-04 05:22:00,69.2,68.0,29.98,SSE,147,0.0,-999.0,96,-99.99,,,0.00,0,weatherlink.com 1.10,2013-10-04 10:22:00,
2013-10-04 05:37:00,69.2,68.0,29.98,SSE,147,0.0,-999.0,96,-99.99,,,0.00,0,weatherlink.com 1.10,2013-10-04 10:37:00,
2013-10-04 05:52:00,69.1,68.0,29.98,SSE,147,0.0,-999.0,96,-99.99,,,0.00,0,weatherlink.com 1.10,2013-10-04 10:52:00,
2013-10-04 06:07:00,69.0,68.0,29.99,SSE,147,0.0,-999.0,96,-99.99,,,0.00,0,weatherlink.com 1.10,2013-10-04 11:07:00,
2013-10-04 06:22:00,68.9,68.0,29.99,SSE,147,0.0,-999.0,96,-99.99,,,0.00,0,weatherlink.com 1.10,2013-10-04 11:22:00,
2013-10-04 06:37:00,68.6,68.0,29.98,SSE,147,0.0,-999.0,96,-99.99,,,0.00,0,weatherlink.com 1.10,2013-10-04 11:37:00,
2013-10-04 06:52:00,68.6,68.0,29.99,SSE,147,0.0,-999.0,96,-99.99,,,0.00,0,weatherlink.com 1.10,2013-10-04 11:52:00,
2013-10-04 07:07:00,68.6,68.0,29.99,SSE,147,0.0,-999.0,96,-99.99,,,0.00,0,weatherlink.com 1.10,2013-10-04 12:07:00,
2013-10-04 07:22:00,68.6,68.0,30.00,SSE,147,0.0,-999.0,97,-99.99,,,0.00,11,weatherlink.com 1.10,2013-10-04 12:22:00,
2013-10-04 07:37:00,68.9,68.0,30.00,SSE,147,0.0,-999.0,97,-99.99,,,0.00,19,weatherlink.com 1.10,2013-10-04 12:37:00,
2013-10-04 07:52:00,69.2,68.0,30.00,SSE,147,0.0,-999.0,97,-99.99,,,0.00,51,weatherlink.com 1.10,2013-10-04 12:52:00,
2013-10-04 08:07:00,69.6,69.0,30.01,SSE,147,0.0,-999.0,97,-99.99,,,0.00,56,weatherlink.com 1.10,2013-10-04 13:07:00,
2013-10-04 08:22:00,70.5,70.0,30.00,SSE,147,0.0,-999.0,97,-99.99,,,0.00,116,weatherlink.com 1.10,2013-10-04 13:22:00,
2013-10-04 08:37:00,71.2,70.0,30.00,SSE,147,0.0,-999.0,97,-99.99,,,0.00,102,weatherlink.com 1.10,2013-10-04 13:37:00,
2013-10-04 08:52:00,72.1,71.0,30.00,SSE,147,0.0,-999.0,95,-99.99,,,0.00,95,weatherlink.com 1.10,2013-10-04 13:52:00,
2013-10-04 09:07:00,73.3,72.0,30.01,SSE,147,0.0,-999.0,94,-99.99,,,0.00,250,weatherlink.com 1.10,2013-10-04 14:07:00,
2013-10-04 09:22:00,74.5,72.0,30.01,SE,145,0.0,-999.0,90,-99.99,,,0.00,353,weatherlink.com 1.10,2013-10-04 14:22:00,
2013-10-04 09:42:00,75.5,72.0,30.01,SSE,148,0.0,-999.0,88,-99.99,,,0.00,410,weatherlink.com 1.10,2013-10-04 14:42:00,
2013-10-04 09:52:00,76.1,72.0,30.01,SSE,151,0.0,-999.0,87,-99.99,,,0.00,434,weatherlink.com 1.10,2013-10-04 14:52:00,
2013-10-04 10:08:00,77.1,72.0,30.01,SSE,152,0.0,-999.0,85,-99.99,,,0.00,443,weatherlink.com 1.10,2013-10-04 15:08:00,
2013-10-04 10:23:00,77.6,72.0,30.01,SSE,155,1.0,-999.0,83,-99.99,,,0.00,420,weatherlink.com 1.10,2013-10-04 15:23:00,
2013-10-04 10:38:00,78.5,73.0,30.01,SSE,161,0.0,-999.0,82,-99.99,,,0.00,592,weatherlink.com 1.10,2013-10-04 15:38:00,
2013-10-04 10:53:00,79.6,74.0,30.01,SSE,167,0.0,-999.0,82,-99.99,,,0.00,698,weatherlink.com 1.10,2013-10-04 15:53:00,
2013-10-04 11:08:00,80.9,73.0,30.00,SE,130,0.0,-999.0,76,-99.99,,,0.00,397,weatherlink.com 1.10,2013-10-04 16:08:00,
2013-10-04 11:23:00,81.1,73.0,30.00,South,178,0.0,-999.0,76,-99.99,,,0.00,592,weatherlink.com 1.10,2013-10-04 16:23:00,
2013-10-04 11:38:00,82.4,73.0,30.00,SSW,205,5.0,-999.0,72,-99.99,,,0.00,759,weatherlink.com 1.10,2013-10-04 16:38:00,
2013-10-04 11:53:00,82.8,72.0,30.00,South,173,9.0,-999.0,69,-99.99,,,0.00,731,weatherlink.com 1.10,2013-10-04 16:53:00,
2013-10-04 12:08:00,84.3,71.0,29.99,South,169,0.0,-999.0,64,-99.99,,,0.00,737,weatherlink.com 1.10,2013-10-04 17:08:00,
2013-10-04 12:23:00,84.9,70.0,29.99,South,170,6.0,-999.0,62,-99.99,,,0.00,190,weatherlink.com 1.10,2013-10-04 17:23:00,
2013-10-04 13:08:00,85.3,70.0,29.98,South,186,2.0,-999.0,61,-99.99,,,0.00,773,weatherlink.com 1.10,2013-10-04 18:08:00,
2013-10-04 13:23:00,86.2,70.0,29.97,SSW,192,0.0,-999.0,59,-99.99,,,0.00,823,weatherlink.com 1.10,2013-10-04 18:23:00,
2013-10-04 13:38:00,87.0,70.0,29.96,South,175,1.0,-999.0,57,-99.99,,,0.00,807,weatherlink.com 1.10,2013-10-04 18:38:00,
2013-10-04 13:53:00,86.6,69.0,29.95,South,171,0.0,-999.0,55,-99.99,,,0.00,269,weatherlink.com 1.10,2013-10-04 18:53:00,
2013-10-04 14:08:00,86.0,69.0,29.95,SSE,160,0.0,-999.0,57,-99.99,,,0.00,584,weatherlink.com 1.10,2013-10-04 19:08:00,
2013-10-04 14:23:00,86.5,70.0,29.95,SSW,213,0.0,-999.0,58,-99.99,,,0.00,719,weatherlink.com 1.10,2013-10-04 19:23:00,
2013-10-04 14:38:00,86.8,69.0,29.94,SSE,165,2.0,-999.0,56,-99.99,,,0.00,652,weatherlink.com 1.10,2013-10-04 19:38:00,
2013-10-04 14:53:00,86.7,69.0,29.94,SSE,155,5.0,-999.0,56,-99.99,,,0.00,677,weatherlink.com 1.10,2013-10-04 19:53:00,
2013-10-04 15:08:00,87.1,69.0,29.94,South,171,0.0,-999.0,56,-99.99,,,0.00,241,weatherlink.com 1.10,2013-10-04 20:08:00,
2013-10-04 15:23:00,87.1,70.0,29.94,SSE,159,2.0,-999.0,57,-99.99,,,0.00,531,weatherlink.com 1.10,2013-10-04 20:23:00,
2013-10-04 15:38:00,86.7,70.0,29.94,SSE,148,5.0,-999.0,57,-99.99,,,0.00,160,weatherlink.com 1.10,2013-10-04 20:38:00,
2013-10-04 15:54:00,85.9,68.0,29.93,SSE,157,0.0,-999.0,56,-99.99,,,0.00,221,weatherlink.com 1.10,2013-10-04 20:54:00,
2013-10-04 16:08:00,86.3,70.0,29.93,SSE,158,4.0,-999.0,58,-99.99,,,0.00,522,weatherlink.com 1.10,2013-10-04 21:08:00,
2013-10-04 16:24:00,87.7,68.0,29.93,SSE,167,0.0,-999.0,53,-99.99,,,0.00,468,weatherlink.com 1.10,2013-10-04 21:24:00,
2013-10-04 16:39:00,87.1,69.0,29.92,SSE,157,0.0,-999.0,56,-99.99,,,0.00,255,weatherlink.com 1.10,2013-10-04 21:39:00,
2013-10-04 16:54:00,86.0,69.0,29.93,South,182,0.0,-999.0,58,-99.99,,,0.00,142,weatherlink.com 1.10,2013-10-04 21:54:00,
2013-10-04 17:09:00,84.6,70.0,29.93,SSE,167,0.0,-999.0,61,-99.99,,,0.00,130,weatherlink.com 1.10,2013-10-04 22:09:00,
2013-10-04 17:24:00,83.8,70.0,29.93,SSE,163,0.0,-999.0,64,-99.99,,,0.00,109,weatherlink.com 1.10,2013-10-04 22:24:00,
2013-10-04 17:39:00,83.1,70.0,29.93,SE,146,0.0,-999.0,65,-99.99,,,0.00,70,weatherlink.com 1.10,2013-10-04 22:39:00,
2013-10-04 17:54:00,82.6,71.0,29.94,SSE,147,0.0,-999.0,67,-99.99,,,0.00,63,weatherlink.com 1.10,2013-10-04 22:54:00,
2013-10-04 18:09:00,82.0,70.0,29.93,SE,138,0.0,-999.0,67,-99.99,,,0.00,46,weatherlink.com 1.10,2013-10-04 23:09:00,
2013-10-04 18:24:00,81.4,70.0,29.94,SSE,150,0.0,-999.0,68,-99.99,,,0.00,18,weatherlink.com 1.10,2013-10-04 23:24:00,
2013-10-04 18:39:00,80.6,70.0,29.94,SE,144,2.0,-999.0,70,-99.99,,,0.00,7,weatherlink.com 1.10,2013-10-04 23:39:00,
2013-10-04 18:54:00,80.2,70.0,29.94,SSE,147,2.0,-999.0,72,-99.99,,,0.00,0,weatherlink.com 1.10,2013-10-04 23:54:00,
2013-10-04 19:09:00,79.4,71.0,29.94,SSE,159,0.0,-999.0,75,-99.99,,,0.00,0,weatherlink.com 1.10,2013-10-05 00:09:00,
2013-10-04 19:24:00,78.8,71.0,29.94,SSE,161,0.0,-999.0,77,-99.99,,,0.00,0,weatherlink.com 1.10,2013-10-05 00:24:00,
2013-10-04 19:39:00,78.2,71.0,29.94,SSE,150,0.0,-999.0,78,-99.99,,,0.00,0,weatherlink.com 1.10,2013-10-05 00:39:00,
2013-10-04 19:54:00,77.6,71.0,29.95,SSE,165,0.0,-999.0,80,-99.99,,,0.00,0,weatherlink.com 1.10,2013-10-05 00:54:00,
2013-10-04 20:09:00,77.2,71.0,29.95,South,189,0.0,-999.0,80,-99.99,,,0.00,0,weatherlink.com 1.10,2013-10-05 01:09:00,
2013-10-04 20:24:00,76.9,71.0,29.95,SSE,149,0.0,-999.0,81,-99.99,,,0.00,0,weatherlink.com 1.10,2013-10-05 01:24:00,
2013-10-04 20:39:00,76.7,71.0,29.95,SSE,156,0.0,-999.0,81,-99.99,,,0.00,0,weatherlink.com 1.10,2013-10-05 01:39:00,
2013-10-04 20:54:00,76.4,71.0,29.96,SSE,167,0.0,-999.0,82,-99.99,,,0.00,0,weatherlink.com 1.10,2013-10-05 01:54:00,
2013-10-04 21:09:00,76.0,71.0,29.98,SSE,167,0.0,-999.0,83,-99.99,,,0.00,0,weatherlink.com 1.10,2013-10-05 02:09:00,
2013-10-04 21:24:00,75.6,71.0,29.98,SSE,167,0.0,-999.0,84,-99.99,,,0.00,0,weatherlink.com 1.10,2013-10-05 02:24:00,
2013-10-04 21:39:00,75.3,70.0,29.98,SSE,167,0.0,-999.0,84,-99.99,,,0.00,0,weatherlink.com 1.10,2013-10-05 02:39:00,
2013-10-04 21:54:00,75.1,70.0,29.99,SSE,167,0.0,-999.0,85,-99.99,,,0.00,0,weatherlink.com 1.10,2013-10-05 02:54:00,
2013-10-04 22:09:00,74.8,70.0,29.99,SSE,167,0.0,-999.0,86,-99.99,,,0.00,0,weatherlink.com 1.10,2013-10-05 03:09:00,
2013-10-04 22:24:00,74.5,70.0,29.99,SSE,167,0.0,-999.0,86,-99.99,,,0.00,0,weatherlink.com 1.10,2013-10-05 03:24:00,
2013-10-04 22:39:00,74.1,70.0,29.99,SSE,167,0.0,-999.0,87,-99.99,,,0.00,0,weatherlink.com 1.10,2013-10-05 03:39:00,
2013-10-04 22:54:00,74.1,70.0,29.99,SSE,167,0.0,-999.0,88,-99.99,,,0.00,0,weatherlink.com 1.10,2013-10-05 03:54:00,
2013-10-04 23:09:00,74.0,70.0,29.99,SSE,167,0.0,-999.0,88,-99.99,,,0.00,0,weatherlink.com 1.10,2013-10-05 04:09:00,
2013-10-04 23:24:00,73.7,70.0,29.99,SSE,167,0.0,-999.0,88,-99.99,,,0.00,0,weatherlink.com 1.10,2013-10-05 04:24:00,
2013-10-04 23:39:00,73.5,71.0,29.99,SSE,167,0.0,-999.0,90,-99.99,,,0.00,0,weatherlink.com 1.10,2013-10-05 04:39:00,
2013-10-04 23:54:00,73.7,71.0,29.99,SSE,167,0.0,-999.0,90,-99.99,,,0.00,0,weatherlink.com 1.10,2013-10-05 04:54:00,